Weather History for New River MCAS, NC

Change the Weather History Date:

Sunday, December 29, 2013

  Actual Average Record
Temperature  
Mean Temperature 61 °F -  
Max Temperature 70 °F 53 °F 75 °F (1996)
Min Temperature 51 °F 32 °F 24 °F (2010)
Degree Days  
Heating Degree Days 4    
Growing Degree Days 11 (Base 50)    
Moisture  
Dew Point 59 °F    
Average Humidity 85    
Maximum Humidity 93    
Minimum Humidity 66    
Precipitation  
Precipitation 0.31 in - - ()
Sea Level Pressure  
Sea Level Pressure 29.87 in    
Wind  
Wind Speed 11 mph (SSW)    
Max Wind Speed 26 mph    
Max Gust Speed 38 mph    
Visibility 8 miles    
Events Rain    
Averages and records for this station are not official NWS values.
T = Trace of Precipitation, MM = Missing Value Source: NWS Daily Summary

Daily Weather History Graph

Daily Weather History Graph

Search for Another Location

Airport:

Trip Planner

Search our weather history database for the weather conditions in past years. The results will help you decide how hot, cold, wet, or windy it might be!

Date:

Astronomy

Dec. 29, 2013 Rise Set
Actual Time 7:16 AM EST 5:07 PM EST
Civil Twilight 6:48 AM EST 5:35 PM EST
Nautical Twilight 6:16 AM EST 6:07 PM EST
Astronomical Twilight 5:46 AM EST 6:37 PM EST
Moon 4:01 AM EST (12/29) 2:41 PM EST (12/29)
Length of Visible Light 10h 47m
Length of Day
9h 51m
Waning Crescent, 11% of the Moon is Illuminated
Dec 29
Waning Crescent
Jan 1
New
Jan 7
First Quarter
Jan 15
Full
Jan 24
Last Quarter

Hourly Weather History & Observations

Time (EST) Temp. Dew Point Humidity Pressure Visibility Wind Dir Wind Speed Gust Speed Precip Events Conditions
12:56 AM 52.0 °F 41.0 °F 66% 30.12 in 10.0 mi Calm Calm - N/A   Overcast
1:56 AM 53.1 °F 44.1 °F 71% 30.09 in 10.0 mi East 3.5 mph - N/A   Overcast
2:56 AM 63.0 °F 55.9 °F 78% 30.06 in 10.0 mi SE 10.4 mph - N/A   Overcast
3:56 AM 64.9 °F 55.9 °F 73% 30.01 in 10.0 mi SE 15.0 mph - N/A   Overcast
4:56 AM 64.9 °F 59.0 °F 81% 29.97 in 7.0 mi SE 17.3 mph 24.2 mph 0.01 in Rain Light Rain
5:56 AM 66.0 °F 60.1 °F 81% 29.95 in 10.0 mi SSE 13.8 mph 24.2 mph 0.00 in Rain Light Rain
6:56 AM 66.9 °F 62.1 °F 84% 29.93 in 10.0 mi SSE 17.3 mph 26.5 mph 0.00 in   Overcast
7:56 AM 66.9 °F 62.1 °F 84% 29.92 in 10.0 mi South 17.3 mph - N/A   Overcast
8:56 AM 66.9 °F 63.0 °F 87% 29.90 in 5.0 mi South 18.4 mph 26.5 mph 0.01 in Rain Light Rain
9:56 AM 68.0 °F 63.0 °F 84% 29.88 in 10.0 mi South 21.9 mph 32.2 mph 0.02 in Rain Light Rain
10:59 AM 66.9 °F 63.0 °F 87% 29.84 in 1.8 mi South 21.9 mph 32.2 mph 0.04 in Rain Rain
11:32 AM 66.0 °F 63.0 °F 90% 29.82 in 2.5 mi South 15.0 mph 24.2 mph 0.22 in Rain Rain
11:39 AM 66.0 °F 63.0 °F 90% 29.80 in 3.0 mi South 19.6 mph 27.6 mph 0.24 in Rain Rain
11:56 AM 66.0 °F 64.0 °F 93% 29.80 in 4.0 mi South 17.3 mph 32.2 mph 0.27 in Rain Light Rain
12:18 PM 66.9 °F 64.0 °F 90% 29.77 in 8.0 mi South 26.5 mph 38.0 mph 0.00 in   Overcast
12:56 PM 68.0 °F 64.9 °F 90% 29.77 in 6.0 mi SSW 19.6 mph 29.9 mph 0.00 in   Overcast
1:56 PM 70.0 °F 64.9 °F 84% 29.74 in 10.0 mi SW 16.1 mph 28.8 mph N/A   Overcast
2:31 PM 70.0 °F 64.9 °F 84% 29.73 in 10.0 mi SW 10.4 mph 24.2 mph N/A   Overcast
2:56 PM 70.0 °F 64.9 °F 84% 29.74 in 10.0 mi SW 13.8 mph 20.7 mph N/A   Mostly Cloudy
3:29 PM 70.0 °F 64.9 °F 84% 29.74 in 10.0 mi SW 10.4 mph - 0.00 in   Mostly Cloudy
3:41 PM 69.1 °F 64.9 °F 87% 29.74 in 10.0 mi SW 9.2 mph - 0.00 in   Scattered Clouds
3:56 PM 70.0 °F 64.9 °F 84% 29.75 in 10.0 mi SW 9.2 mph - 0.00 in   Clear
4:56 PM 69.1 °F 63.0 °F 81% 29.77 in 10.0 mi SW 5.8 mph - N/A   Mostly Cloudy
5:56 PM 64.0 °F 62.1 °F 93% 29.79 in 8.0 mi WSW 4.6 mph - N/A   Mostly Cloudy
6:56 PM 63.0 °F 57.0 °F 81% 29.83 in 10.0 mi West 12.7 mph - N/A   Partly Cloudy
7:56 PM 59.0 °F 55.0 °F 87% 29.87 in 10.0 mi NW 12.7 mph - N/A   Clear
8:56 PM 57.0 °F 53.1 °F 87% 29.90 in 10.0 mi WNW 10.4 mph - N/A   Clear
9:56 PM 54.0 °F 52.0 °F 93% 29.93 in 10.0 mi West 6.9 mph - N/A   Clear
10:56 PM 52.0 °F 50.0 °F 93% 29.95 in 10.0 mi WNW 6.9 mph - N/A   Clear
11:56 PM 51.1 °F 48.9 °F 92% 29.95 in 10.0 mi WNW 8.1 mph - N/A   Clear